Location: Gilevgi
(36.8751°N, 30.0581°E)
Time: 04:34:35
(UTC+00:00)

Cosmos 2263 Rocket - Pass Details

Date: 11 December 2025
Orbit: 821 x 849 km, 71.0° (Epoch: 13 January)

Event Time Altitude Azimuth Distance (km) Brightness Sun altitude
Rises 16:41:09 0° 337° (NNW) 3,407 5.5 -22.8°
Reaches altitude 10° 16:43:36 10° 336° (NNW) 2,472 4.7 -23.3°
Maximum altitude 16:49:17 82° 251° (WSW) 860 2.2 -24.4°
Drops below altitude 10° 16:54:58 10° 163° (SSE) 2,464 4.5 -25.5°
Sets 16:57:24 0° 163° (SSE) 3,395 5.3 -26.0°
